Powrót do katalogu

INTELSAT 33E DEB

AktywnyGEO
NORAD 62001·DEBRIS· XX

Wystrzelony Aug 24, 2016 z Guiana Space Centre

Loading…

TLE

ŚwieżeSource: Space-Track

Epoka: Sep 13, 2026, 02:54 UTC

1 62001U 16053T   26256.12091719  .00000143  00000-0  00000-0 0  9993
2 62001   1.6390  67.5069 0053330 358.3719   2.4739  1.00267624  6967

Śledź INTELSAT 33E DEB w czasie rzeczywistym z AllMySat

Download on the App Store